Location: Newark
(22.3060°N, 114.2134°E)
Time: 04:42:19
(UTC+00:00)

Hubble Space Telescope - Visible Passes

Search period start: 05 April 2020 00:00
Search period end: 15 April 2020 00:00
Orbit: 536 x 540 km, 28.5° (Epoch: 04 April)

Date Brightness Start Highest point End Pass type
(mag) Time Alt. Az. Time Alt. Az. Time Alt. Az.
05 Apr 0.8 11:36:50 10° WSW 11:40:54 62° SSE 11:42:59 27° E visible
05 Apr 4.0 13:18:12 10° W 13:18:21 11° W 13:18:21 11° W visible
06 Apr 0.7 11:26:08 10° WSW 11:30:15 80° SSE 11:33:22 17° ENE visible
06 Apr 3.6 13:07:41 10° W 13:08:44 16° WNW 13:08:44 16° WNW visible
07 Apr 0.8 11:15:29 10° WSW 11:19:36 81° NNW 11:23:39 10° ENE visible
07 Apr 3.1 12:57:11 10° WNW 12:59:00 22° WNW 12:59:00 22° WNW visible
08 Apr 1.1 11:04:54 10° W 11:08:59 66° NNW 11:13:04 10° ENE visible
08 Apr 2.6 12:46:40 10° WNW 12:49:11 28° NW 12:49:11 28° NW visible
09 Apr 2.3 12:36:08 10° WNW 12:39:17 32° NNW 12:39:17 32° NNW visible
10 Apr 2.0 12:25:35 10° WNW 12:29:20 33° N 12:29:20 33° N visible
11 Apr 1.9 12:15:01 10° WNW 12:18:47 34° N 12:19:20 33° NNE visible
12 Apr 1.8 12:04:25 10° WNW 12:08:13 36° N 12:09:18 30° NE visible
13 Apr 1.7 11:53:47 10° WNW 11:57:40 39° N 11:59:15 27° NE visible
14 Apr 1.5 11:43:08 10° WNW 11:47:04 43° N 11:49:12 23° ENE visible
14 Apr 4.0 13:24:17 10° WNW 13:24:32 12° WNW 13:24:32 12° WNW visible
